OBJECT G, 67254

Orbit data source: Space-Track

You're viewing an Uncataloged Satellite

Recently launched and/or uncataloged satellites may have evolving metadata. Metadata may include but not limited to: Owner, Maufacturer, Bus, Motor, and Mission.

OBJECT G, 67254 is a satellite in SSO that was launched on Sun, 28 Dec 2025 UTC via a SOYUZ-2-1B launch vehicle from the Vostochny Cosmodrome (VOSTO). Unknown objects in Earth's orbit typically refer to objects detected orbiting the Earth but have not yet been identified or cataloged. These objects could be anything from previously untracked satellites, spent rocket stages, debris from satellite collisions, or even natural meteoroids temporarily captured by Earth's gravity.

Loading next visibility...
Identifier
67254, 2025-313G
Orbit
SSO
Country
Flag of TBDTBD
Related business
Manufacturer
SNIU/PROGT
Mission
Operational Amateur Imaging
Bus & Motor
AIST, Unknown motor
Mass
670 kg wet, ~630 kg dry
Launch date (UTC)
2025-12-28 (6 months ago)
Launch vehicle
SOYUZ-2-1B
Launch site
Vostochny Cosmodrome (VOSTO)
Object type
Unknown
Shape & HBR
Box + 2 Pan, 3.5 m
Radar Cross Section
4.561 m², Large (>1 m²)

Expand to show TLE details & history
Last TLE update: 9 hours ago

TLE from 9 hours ago
0 OBJECT G
1 67254U 25313G   26171.48326595  .00024055  00000-0  28763-3 0  9992
2 67254  97.0830 249.0098 0008346 191.8044 168.3020 15.60952453 27125
Epoch: 2026-06-20T11:35Z
TLE epoch observation values (Epoch: 2026-06-20T11:35:54.178Z)
Latitude
0.00002°
Longitude
166.33681°
Altitude
393.588 km
Speed
7.671 km/s
True Right ascension
16h 36m 02s
True Declination
0° 00' 00"
Sunlit
Object was in full shadow at epoch
Visualization orbit readout
Latitude
Unknown
Longitude
Unknown
Altitude
Unknown
Speed
Unknown
Apparent Right ascension
Unknown
Apparent Declination
Unknown
Sunlit
N/A
Visualization observer readout
Local Sidereal Time
07:15:04
Azimuth
Unknown
Elevation
Unknown
Doppler factor
Unknown
Orbital elements
Apogee altitude
387.444 km
Perigee altitude
376.16 km
Semi-major axis
6,759.939 km
Eccentricity
0.00083
Inclination
97.083°
RAAN
249.0098°
Arg. of periapsis
191.8044°
True anomaly
168.32137°
Mean anomaly
168.302°
Eccentric anomaly
168.31169°
Mean motion
3.90507 °/min
Orbital period
92.19 mins
BSTAR
0.00028763
Loading maneuver chart data...
Computing Atmospheric mass density...
Loading historical data...
Loading historical data...
Loading historical data...
Loading historical data...
Loading historical data...
Loading historical data...
Loading historical data...

Documentation

Showing up to 5 results
|